This is the latest recevied weather packets stored in our database for station/object NY3Q. If no packets are shown the sender has not sent any weather packets the latest 10 day(s).
| Time | Temp. | Humidity | Pressure | Rain* | Wind** | Luminosity | Snow |
|---|---|---|---|---|---|---|---|
| 1778190141 | 31.67° C | 51% | 1010.8 hPa | 0 mm | - | 332 W/m² | - |
| 1778189836 | 31.11° C | 52% | 1010.9 hPa | 0 mm | - | 267 W/m² | - |
| 1778189534 | 30.56° C | 54% | 1010.6 hPa | 0 mm | - | 310 W/m² | - |
| 1778189229 | 30.56° C | 54% | 1010.4 hPa | 0 mm | - | 211 W/m² | - |
| 1778188926 | 30.56° C | 53% | 1010.2 hPa | 0 mm | - | 207 W/m² | - |
| 1778188623 | 30° C | 55% | 1010.4 hPa | 0 mm | - | 320 W/m² | - |
| 1778188319 | 29.44° C | 56% | 1010.7 hPa | 0 mm | - | 191 W/m² | - |
| 1778188016 | 29.44° C | 56% | 1011.3 hPa | 0 mm | - | 112 W/m² | - |
| 1778187713 | 29.44° C | 56% | 1011.5 hPa | 0 mm | - | 124 W/m² | - |
| 1778187409 | 28.89° C | 56% | 1011.5 hPa | 0 mm | - | 121 W/m² | - |
| 1778187106 | 28.89° C | 57% | 1012 hPa | 0 mm | - | 102 W/m² | - |
| 1778186802 | 28.89° C | 58% | 1011.9 hPa | 0 mm | - | 89 W/m² | - |
| 1778186500 | 28.89° C | 58% | 1012 hPa | 0 mm | - | 74 W/m² | - |
| 1778186198 | 28.89° C | 58% | 1012.2 hPa | 0 mm | - | 61 W/m² | - |
| 1778185895 | 28.89° C | 59% | 1012.4 hPa | 0 mm | - | 72 W/m² | - |
| 1778185591 | 28.89° C | 60% | 1012.6 hPa | 0 mm | - | 73 W/m² | - |
| 1778185287 | 28.89° C | 60% | 1012.8 hPa | 0 mm | - | 61 W/m² | - |
| 1778184982 | 28.89° C | 60% | 1012.8 hPa | 0 mm | - | 52 W/m² | - |
| 1778184680 | 28.89° C | 59% | 1012.5 hPa | 0 mm | - | 50 W/m² | - |
| 1778184375 | 29.44° C | 59% | 1012.6 hPa | 0 mm | - | 82 W/m² | - |
| 1778184071 | 29.44° C | 59% | 1012.8 hPa | 0 mm | - | 107 W/m² | - |
| 1778183769 | 29.44° C | 59% | 1012.7 hPa | 0 mm | - | 101 W/m² | - |
| 1778183466 | 29.44° C | 58% | 1012.7 hPa | 0 mm | - | 104 W/m² | - |
| 1778183162 | 30° C | 58% | 1012.9 hPa | 0 mm | - | 113 W/m² | - |
| 1778182858 | 30° C | 58% | 1012.8 hPa | 0 mm | - | 141 W/m² | - |
* Rain latest hour (hover to see other rain measurements)
** Current wind speed in m/s (hover to see current wind gust speed)